Time,TemperatureF,DewpointF,PressureIn,WindDirection,WindDirectionDegrees,WindSpeedMPH,WindSpeedGustMPH,Humidity,HourlyPrecipIn,Conditions,Clouds,dailyrainin,SoftwareType,DateUTC
2013-03-06 00:00:00,64.8,58.1,29.93,SW,216,0.0,10.0,79,0.00,,,0.00,Wunderground v.1.15,2013-03-06 05:00:00,
2013-03-06 00:05:00,65.0,58.3,29.93,South,189,1.0,2.0,79,0.00,,,0.00,Wunderground v.1.15,2013-03-06 05:05:00,
2013-03-06 00:06:00,65.0,58.3,29.93,SSE,161,0.0,2.0,79,0.00,,,0.00,Wunderground v.1.15,2013-03-06 05:06:00,
2013-03-06 00:12:00,65.0,58.3,29.93,SSW,199,0.0,5.0,79,0.00,,,0.00,Wunderground v.1.15,2013-03-06 05:12:00,
2013-03-06 00:17:00,65.2,58.5,29.92,South,171,0.0,5.0,79,0.00,,,0.00,Wunderground v.1.15,2013-03-06 05:17:00,
2013-03-06 00:22:00,65.2,58.9,29.92,South,175,0.0,1.0,80,0.00,,,0.00,Wunderground v.1.15,2013-03-06 05:22:00,
2013-03-06 00:27:00,65.2,58.9,29.92,South,186,0.0,6.0,80,0.00,,,0.00,Wunderground v.1.15,2013-03-06 05:27:00,
2013-03-06 00:33:00,65.2,58.9,29.92,SE,138,1.0,1.0,80,0.00,,,0.00,Wunderground v.1.15,2013-03-06 05:33:00,
2013-03-06 00:38:00,65.2,58.9,29.92,WSW,243,0.0,1.0,80,0.00,,,0.00,Wunderground v.1.15,2013-03-06 05:38:00,
2013-03-06 00:43:00,65.2,58.9,29.92,South,171,0.0,1.0,80,0.00,,,0.00,Wunderground v.1.15,2013-03-06 05:43:00,
2013-03-06 00:49:00,65.2,58.9,29.91,SSW,203,4.0,4.0,80,0.00,,,0.00,Wunderground v.1.15,2013-03-06 05:49:00,
2013-03-06 00:54:00,65.0,58.7,29.91,SSW,213,2.0,7.0,80,0.00,,,0.00,Wunderground v.1.15,2013-03-06 05:54:00,
2013-03-06 00:59:00,65.0,59.0,29.91,SSE,147,0.0,7.0,81,0.00,,,0.00,Wunderground v.1.15,2013-03-06 05:59:00,
2013-03-06 01:05:00,65.0,59.0,29.90,South,188,0.0,10.0,81,0.00,,,0.00,Wunderground v.1.15,2013-03-06 06:05:00,
2013-03-06 01:10:00,65.2,59.2,29.90,South,189,0.0,1.0,81,0.00,,,0.00,Wunderground v.1.15,2013-03-06 06:10:00,
2013-03-06 01:15:00,65.2,59.2,29.90,SE,141,0.0,1.0,81,0.00,,,0.00,Wunderground v.1.15,2013-03-06 06:15:00,
2013-03-06 01:21:00,65.3,59.7,29.90,SE,136,0.0,1.0,82,0.00,,,0.00,Wunderground v.1.15,2013-03-06 06:21:00,
2013-03-06 01:26:00,65.3,59.7,29.90,SSW,200,0.0,6.0,82,0.00,,,0.00,Wunderground v.1.15,2013-03-06 06:26:00,
2013-03-06 01:31:00,65.5,59.9,29.90,SSW,199,0.0,2.0,82,0.00,,,0.00,Wunderground v.1.15,2013-03-06 06:31:00,
2013-03-06 01:37:00,65.5,59.9,29.90,SSW,208,0.0,2.0,82,0.00,,,0.00,Wunderground v.1.15,2013-03-06 06:37:00,
2013-03-06 01:42:00,65.5,59.9,29.90,SW,222,1.0,7.0,82,0.00,,,0.00,Wunderground v.1.15,2013-03-06 06:42:00,
2013-03-06 01:47:00,65.5,59.9,29.89,SSW,205,0.0,7.0,82,0.00,,,0.00,Wunderground v.1.15,2013-03-06 06:47:00,
2013-03-06 01:53:00,65.5,60.2,29.89,SW,232,3.0,5.0,83,0.00,,,0.00,Wunderground v.1.15,2013-03-06 06:53:00,
2013-03-06 01:58:00,65.3,60.0,29.89,SSW,212,6.0,6.0,83,0.00,,,0.00,Wunderground v.1.15,2013-03-06 06:58:00,
2013-03-06 02:03:00,65.3,60.0,29.89,South,186,8.0,10.0,83,0.00,,,0.00,Wunderground v.1.15,2013-03-06 07:03:00,
2013-03-06 02:08:00,65.3,60.0,29.89,SSW,202,0.0,10.0,83,0.00,,,0.00,Wunderground v.1.15,2013-03-06 07:08:00,
2013-03-06 02:13:00,65.3,60.0,29.89,SW,229,0.0,3.0,83,0.00,,,0.00,Wunderground v.1.15,2013-03-06 07:13:00,
2013-03-06 02:18:00,65.3,60.0,29.88,SSE,161,3.0,7.0,83,0.00,,,0.00,Wunderground v.1.15,2013-03-06 07:18:00,
2013-03-06 02:23:00,65.3,60.3,29.88,SSW,200,0.0,6.0,84,0.00,,,0.00,Wunderground v.1.15,2013-03-06 07:23:00,
2013-03-06 02:28:00,65.3,60.3,29.88,SSE,154,0.0,6.0,84,0.00,,,0.00,Wunderground v.1.15,2013-03-06 07:28:00,
2013-03-06 02:33:00,65.5,60.5,29.88,SSW,198,0.0,3.0,84,0.00,,,0.00,Wunderground v.1.15,2013-03-06 07:33:00,
2013-03-06 02:38:00,65.5,60.5,29.88,SSW,198,0.0,7.0,84,0.00,,,0.00,Wunderground v.1.15,2013-03-06 07:38:00,
2013-03-06 02:43:00,65.5,60.5,29.88,SSW,203,5.0,7.0,84,0.00,,,0.00,Wunderground v.1.15,2013-03-06 07:43:00,
2013-03-06 02:48:00,65.6,60.6,29.87,South,174,0.0,8.0,84,0.00,,,0.00,Wunderground v.1.15,2013-03-06 07:48:00,
2013-03-06 02:53:00,65.6,60.6,29.87,SSW,196,0.0,6.0,84,0.00,,,0.00,Wunderground v.1.15,2013-03-06 07:53:00,
2013-03-06 02:58:00,65.6,60.6,29.87,SSW,203,0.0,7.0,84,0.00,,,0.00,Wunderground v.1.15,2013-03-06 07:58:00,
2013-03-06 03:03:00,65.6,60.6,29.87,SSW,199,0.0,6.0,84,0.00,,,0.00,Wunderground v.1.15,2013-03-06 08:03:00,
2013-03-06 03:08:00,65.6,60.6,29.87,SW,215,0.0,6.0,84,0.00,,,0.00,Wunderground v.1.15,2013-03-06 08:08:00,
2013-03-06 03:13:00,65.6,60.6,29.87,SSW,200,0.0,1.0,84,0.00,,,0.00,Wunderground v.1.15,2013-03-06 08:13:00,
2013-03-06 03:18:00,65.5,60.9,29.86,WSW,257,0.0,6.0,85,0.00,,,0.00,Wunderground v.1.15,2013-03-06 08:18:00,
2013-03-06 03:23:00,65.5,60.9,29.86,SSW,208,0.0,0.0,85,0.00,,,0.00,Wunderground v.1.15,2013-03-06 08:23:00,
2013-03-06 03:28:00,65.3,60.7,29.86,SSW,203,0.0,7.0,85,0.00,,,0.00,Wunderground v.1.15,2013-03-06 08:28:00,
2013-03-06 03:33:00,65.3,60.7,29.86,South,172,0.0,3.0,85,0.00,,,0.00,Wunderground v.1.15,2013-03-06 08:33:00,
2013-03-06 03:38:00,65.2,60.6,29.86,WSW,237,2.0,3.0,85,0.00,,,0.00,Wunderground v.1.15,2013-03-06 08:38:00,
2013-03-06 03:43:00,65.2,60.6,29.86,South,191,0.0,6.0,85,0.00,,,0.00,Wunderground v.1.15,2013-03-06 08:43:00,
2013-03-06 03:48:00,65.2,60.6,29.86,West,265,0.0,6.0,85,0.00,,,0.00,Wunderground v.1.15,2013-03-06 08:48:00,
2013-03-06 03:53:00,65.2,60.6,29.86,WNW,299,0.0,5.0,85,0.00,,,0.00,Wunderground v.1.15,2013-03-06 08:53:00,
2013-03-06 03:58:00,65.2,60.9,29.86,SW,217,0.0,5.0,86,0.00,,,0.00,Wunderground v.1.15,2013-03-06 08:58:00,
2013-03-06 04:04:00,65.2,60.9,29.86,SSE,160,0.0,6.0,86,0.00,,,0.00,Wunderground v.1.15,2013-03-06 09:04:00,
2013-03-06 04:09:00,65.2,60.9,29.86,SW,229,0.0,6.0,86,0.00,,,0.00,Wunderground v.1.15,2013-03-06 09:09:00,
2013-03-06 04:14:00,65.2,60.9,29.86,West,260,0.0,0.0,86,0.00,,,0.00,Wunderground v.1.15,2013-03-06 09:14:00,
2013-03-06 04:19:00,65.2,60.9,29.86,West,261,3.0,6.0,86,0.00,,,0.00,Wunderground v.1.15,2013-03-06 09:19:00,
2013-03-06 04:24:00,64.7,59.8,29.86,NNW,329,4.0,17.0,84,0.00,,,0.00,Wunderground v.1.15,2013-03-06 09:24:00,
2013-03-06 04:29:00,63.5,58.2,29.86,NNW,343,1.0,17.0,83,0.00,,,0.00,Wunderground v.1.15,2013-03-06 09:29:00,
2013-03-06 04:34:00,62.6,57.4,29.88,WNW,301,0.0,13.0,83,0.00,,,0.00,Wunderground v.1.15,2013-03-06 09:34:00,
2013-03-06 04:39:00,62.0,56.4,29.88,WNW,296,3.0,18.0,82,0.00,,,0.00,Wunderground v.1.15,2013-03-06 09:39:00,
2013-03-06 04:44:00,61.5,56.3,29.88,North,6,0.0,8.0,83,0.00,,,0.00,Wunderground v.1.15,2013-03-06 09:44:00,
2013-03-06 04:49:00,61.3,56.1,29.89,North,349,0.0,10.0,83,0.00,,,0.00,Wunderground v.1.15,2013-03-06 09:49:00,
2013-03-06 04:54:00,61.2,56.0,29.89,NNE,23,9.0,9.0,83,0.00,,,0.00,Wunderground v.1.15,2013-03-06 09:54:00,
2013-03-06 04:59:00,61.0,55.8,29.89,NW,315,2.0,16.0,83,0.00,,,0.00,Wunderground v.1.15,2013-03-06 09:59:00,
2013-03-06 05:04:00,60.9,55.7,29.90,North,8,0.0,8.0,83,0.00,,,0.00,Wunderground v.1.15,2013-03-06 10:04:00,
2013-03-06 05:09:00,60.4,54.9,29.90,NNE,20,4.0,17.0,82,0.00,,,0.00,Wunderground v.1.15,2013-03-06 10:09:00,
2013-03-06 05:14:00,59.9,54.4,29.90,North,8,5.0,18.0,82,0.00,,,0.00,Wunderground v.1.15,2013-03-06 10:14:00,
2013-03-06 05:19:00,59.5,53.7,29.92,North,352,16.0,18.0,81,0.00,,,0.00,Wunderground v.1.15,2013-03-06 10:19:00,
2013-03-06 05:24:00,59.0,52.8,29.92,North,349,0.0,8.0,80,0.00,,,0.00,Wunderground v.1.15,2013-03-06 10:24:00,
2013-03-06 05:29:00,58.1,51.6,29.92,North,3,10.0,20.0,79,0.00,,,0.00,Wunderground v.1.15,2013-03-06 10:29:00,
2013-03-06 05:34:00,57.6,50.8,29.93,NNW,344,0.0,14.0,78,0.00,,,0.00,Wunderground v.1.15,2013-03-06 10:34:00,
2013-03-06 05:39:00,57.2,50.1,29.93,NNE,16,13.0,18.0,77,0.00,,,0.00,Wunderground v.1.15,2013-03-06 10:39:00,
2013-03-06 05:44:00,56.7,48.9,29.93,NNW,336,10.0,13.0,75,0.00,,,0.00,Wunderground v.1.15,2013-03-06 10:44:00,
2013-03-06 05:49:00,56.3,48.5,29.94,WSW,258,0.0,16.0,75,0.00,,,0.00,Wunderground v.1.15,2013-03-06 10:49:00,
2013-03-06 05:54:00,56.0,47.8,29.94,WNW,291,10.0,20.0,74,0.00,,,0.00,Wunderground v.1.15,2013-03-06 10:54:00,
2013-03-06 05:59:00,55.6,47.1,29.94,North,0,10.0,20.0,73,0.00,,,0.00,Wunderground v.1.15,2013-03-06 10:59:00,
2013-03-06 06:04:00,55.1,46.2,29.95,NNW,342,11.0,21.0,72,0.00,,,0.00,Wunderground v.1.15,2013-03-06 11:04:00,
2013-03-06 06:09:00,55.0,46.1,29.95,NW,308,16.0,21.0,72,0.00,,,0.00,Wunderground v.1.15,2013-03-06 11:09:00,
2013-03-06 06:14:00,54.8,45.9,29.95,North,0,11.0,17.0,72,0.00,,,0.00,Wunderground v.1.15,2013-03-06 11:14:00,
2013-03-06 06:19:00,54.7,45.5,29.96,North,357,2.0,21.0,71,0.00,,,0.00,Wunderground v.1.15,2013-03-06 11:19:00,
2013-03-06 06:24:00,54.4,45.2,29.96,North,0,7.0,17.0,71,0.00,,,0.00,Wunderground v.1.15,2013-03-06 11:24:00,
2013-03-06 06:29:00,54.2,45.0,29.96,North,359,0.0,17.0,71,0.00,,,0.00,Wunderground v.1.15,2013-03-06 11:29:00,
2013-03-06 06:34:00,54.1,44.9,29.97,North,353,0.0,7.0,71,0.00,,,0.00,Wunderground v.1.15,2013-03-06 11:34:00,
2013-03-06 06:39:00,53.8,44.6,29.97,NNW,337,0.0,16.0,71,0.00,,,0.00,Wunderground v.1.15,2013-03-06 11:39:00,
2013-03-06 06:44:00,53.6,44.4,29.97,North,1,0.0,13.0,71,0.00,,,0.00,Wunderground v.1.15,2013-03-06 11:44:00,
2013-03-06 06:49:00,53.6,44.8,29.97,North,356,0.0,13.0,72,0.00,,,0.00,Wunderground v.1.15,2013-03-06 11:49:00,
2013-03-06 06:54:00,53.6,44.4,29.97,NNE,13,0.0,12.0,71,0.00,,,0.00,Wunderground v.1.15,2013-03-06 11:54:00,
2013-03-06 06:59:00,53.5,44.0,29.97,North,0,5.0,18.0,70,0.00,,,0.00,Wunderground v.1.15,2013-03-06 11:59:00,
2013-03-06 07:04:00,53.5,44.0,29.98,North,7,0.0,11.0,70,0.00,,,0.00,Wunderground v.1.15,2013-03-06 12:04:00,
2013-03-06 07:09:00,53.3,43.4,29.98,North,11,0.0,13.0,69,0.00,,,0.00,Wunderground v.1.15,2013-03-06 12:09:00,
2013-03-06 07:14:00,53.2,43.3,29.98,WNW,284,0.0,19.0,69,0.00,,,0.00,Wunderground v.1.15,2013-03-06 12:14:00,
2013-03-06 07:19:00,52.9,42.6,29.99,North,0,7.0,19.0,68,0.00,,,0.00,Wunderground v.1.15,2013-03-06 12:19:00,
2013-03-06 07:24:00,52.6,42.3,29.99,North,359,0.0,14.0,68,0.00,,,0.00,Wunderground v.1.15,2013-03-06 12:24:00,
2013-03-06 07:29:00,52.5,42.2,29.99,NNW,347,12.0,12.0,68,0.00,,,0.00,Wunderground v.1.15,2013-03-06 12:29:00,
2013-03-06 07:34:00,52.5,42.2,30.00,North,353,9.0,14.0,68,0.00,,,0.00,Wunderground v.1.15,2013-03-06 12:34:00,
2013-03-06 07:39:00,52.5,42.2,30.00,North,356,9.0,9.0,68,0.00,,,0.00,Wunderground v.1.15,2013-03-06 12:39:00,
2013-03-06 07:44:00,52.5,42.2,30.00,North,354,5.0,17.0,68,0.00,,,0.00,Wunderground v.1.15,2013-03-06 12:44:00,
2013-03-06 07:49:00,52.5,42.2,30.01,North,350,1.0,3.0,68,0.00,,,0.00,Wunderground v.1.15,2013-03-06 12:49:00,
2013-03-06 07:54:00,52.6,42.3,30.01,North,357,0.0,10.0,68,0.00,,,0.00,Wunderground v.1.15,2013-03-06 12:54:00,
2013-03-06 07:59:00,52.6,42.3,30.01,NNW,340,0.0,3.0,68,0.00,,,0.00,Wunderground v.1.15,2013-03-06 12:59:00,
2013-03-06 08:04:00,52.8,42.5,30.01,NE,48,0.0,12.0,68,0.00,,,0.00,Wunderground v.1.15,2013-03-06 13:04:00,
2013-03-06 08:09:00,52.8,42.5,30.01,NNW,332,0.0,3.0,68,0.00,,,0.00,Wunderground v.1.15,2013-03-06 13:09:00,
2013-03-06 08:14:00,52.9,42.6,30.01,NNE,27,7.0,17.0,68,0.00,,,0.00,Wunderground v.1.15,2013-03-06 13:14:00,
2013-03-06 08:20:00,53.1,42.8,30.02,North,354,7.0,10.0,68,0.00,,,0.00,Wunderground v.1.15,2013-03-06 13:20:00,
2013-03-06 08:25:00,53.3,42.6,30.02,North,0,0.0,12.0,67,0.00,,,0.00,Wunderground v.1.15,2013-03-06 13:25:00,
2013-03-06 08:30:00,53.5,42.8,30.02,North,349,0.0,5.0,67,0.00,,,0.00,Wunderground v.1.15,2013-03-06 13:30:00,
2013-03-06 08:35:00,53.8,43.1,30.02,NW,308,9.0,18.0,67,0.00,,,0.00,Wunderground v.1.15,2013-03-06 13:35:00,
2013-03-06 08:40:00,53.9,42.8,30.02,NW,323,8.0,8.0,66,0.00,,,0.00,Wunderground v.1.15,2013-03-06 13:40:00,
2013-03-06 08:45:00,54.1,43.0,30.02,North,0,1.0,18.0,66,0.00,,,0.00,Wunderground v.1.15,2013-03-06 13:45:00,
2013-03-06 08:50:00,54.4,43.3,30.02,NW,323,6.0,6.0,66,0.00,,,0.00,Wunderground v.1.15,2013-03-06 13:50:00,
2013-03-06 08:55:00,54.7,43.2,30.02,North,359,0.0,12.0,65,0.00,,,0.00,Wunderground v.1.15,2013-03-06 13:55:00,
2013-03-06 09:00:00,55.0,43.4,30.02,North,0,8.0,11.0,65,0.00,,,0.00,Wunderground v.1.15,2013-03-06 14:00:00,
2013-03-06 09:05:00,55.4,43.4,30.03,NW,326,0.0,20.0,64,0.00,,,0.00,Wunderground v.1.15,2013-03-06 14:05:00,
2013-03-06 09:10:00,55.9,43.9,30.03,North,359,10.0,12.0,64,0.00,,,0.00,Wunderground v.1.15,2013-03-06 14:10:00,
2013-03-06 09:15:00,56.3,44.3,30.03,North,356,3.0,17.0,64,0.00,,,0.00,Wunderground v.1.15,2013-03-06 14:15:00,
2013-03-06 09:20:00,56.7,44.2,30.02,NW,325,0.0,10.0,63,0.00,,,0.00,Wunderground v.1.15,2013-03-06 14:20:00,
2013-03-06 09:25:00,57.3,44.4,30.02,North,354,1.0,13.0,62,0.00,,,0.00,Wunderground v.1.15,2013-03-06 14:25:00,
2013-03-06 09:30:00,57.8,44.9,30.02,North,359,7.0,8.0,62,0.00,,,0.00,Wunderground v.1.15,2013-03-06 14:30:00,
2013-03-06 09:35:00,58.1,44.7,30.03,North,10,0.0,18.0,61,0.00,,,0.00,Wunderground v.1.15,2013-03-06 14:35:00,
2013-03-06 09:40:00,58.4,45.0,30.03,North,0,0.0,11.0,61,0.00,,,0.00,Wunderground v.1.15,2013-03-06 14:40:00,
2013-03-06 09:45:00,58.6,45.2,30.03,North,354,4.0,14.0,61,0.00,,,0.00,Wunderground v.1.15,2013-03-06 14:45:00,
2013-03-06 09:50:00,58.9,45.0,30.03,NNW,344,1.0,11.0,60,0.00,,,0.00,Wunderground v.1.15,2013-03-06 14:50:00,
2013-03-06 09:55:00,59.3,45.0,30.03,NW,304,2.0,13.0,59,0.00,,,0.00,Wunderground v.1.15,2013-03-06 14:55:00,
2013-03-06 10:00:00,59.5,44.7,30.03,NW,306,2.0,14.0,58,0.00,,,0.00,Wunderground v.1.15,2013-03-06 15:00:00,
2013-03-06 10:05:00,59.6,44.8,30.03,North,0,9.0,14.0,58,0.00,,,0.00,Wunderground v.1.15,2013-03-06 15:05:00,
2013-03-06 10:10:00,59.9,45.1,30.03,NNW,328,1.0,17.0,58,0.00,,,0.00,Wunderground v.1.15,2013-03-06 15:10:00,
2013-03-06 10:15:00,60.2,44.4,30.04,NNE,20,10.0,17.0,56,0.00,,,0.00,Wunderground v.1.15,2013-03-06 15:15:00,
2013-03-06 10:21:00,60.1,44.3,30.04,NNW,328,0.0,8.0,56,0.00,,,0.00,Wunderground v.1.15,2013-03-06 15:21:00,
2013-03-06 10:26:00,60.2,44.0,30.04,NNE,18,5.0,14.0,55,0.00,,,0.00,Wunderground v.1.15,2013-03-06 15:26:00,
2013-03-06 10:31:00,60.5,44.2,30.04,North,0,0.0,14.0,55,0.00,,,0.00,Wunderground v.1.15,2013-03-06 15:31:00,
2013-03-06 10:36:00,60.7,43.9,30.04,South,186,11.0,16.0,54,0.00,,,0.00,Wunderground v.1.15,2013-03-06 15:36:00,
2013-03-06 10:41:00,60.7,44.4,30.04,NW,318,7.0,11.0,55,0.00,,,0.00,Wunderground v.1.15,2013-03-06 15:41:00,
2013-03-06 10:46:00,60.9,43.6,30.04,NNW,344,1.0,20.0,53,0.00,,,0.00,Wunderground v.1.15,2013-03-06 15:46:00,
2013-03-06 10:51:00,61.0,43.2,30.04,North,0,17.0,19.0,52,0.00,,,0.00,Wunderground v.1.15,2013-03-06 15:51:00,
2013-03-06 10:56:00,61.2,43.4,30.04,North,0,10.0,19.0,52,0.00,,,0.00,Wunderground v.1.15,2013-03-06 15:56:00,
2013-03-06 11:01:00,61.3,43.0,30.04,North,349,3.0,10.0,51,0.00,,,0.00,Wunderground v.1.15,2013-03-06 16:01:00,
2013-03-06 11:06:00,61.5,43.2,30.04,NW,323,1.0,11.0,51,0.00,,,0.00,Wunderground v.1.15,2013-03-06 16:06:00,
2013-03-06 11:11:00,61.8,43.5,30.04,WSW,251,3.0,12.0,51,0.00,,,0.00,Wunderground v.1.15,2013-03-06 16:11:00,
2013-03-06 11:16:00,61.8,43.0,30.03,West,281,6.0,13.0,50,0.00,,,0.00,Wunderground v.1.15,2013-03-06 16:16:00,
2013-03-06 11:21:00,62.1,43.2,30.03,North,0,0.0,5.0,50,0.00,,,0.00,Wunderground v.1.15,2013-03-06 16:21:00,
2013-03-06 11:26:00,62.6,43.2,30.03,NW,308,2.0,13.0,49,0.00,,,0.00,Wunderground v.1.15,2013-03-06 16:26:00,
2013-03-06 11:31:00,62.6,42.6,30.03,North,8,0.0,6.0,48,0.00,,,0.00,Wunderground v.1.15,2013-03-06 16:31:00,
2013-03-06 11:36:00,62.6,42.6,30.03,North,359,0.0,19.0,48,0.00,,,0.00,Wunderground v.1.15,2013-03-06 16:36:00,
2013-03-06 11:41:00,62.6,42.6,30.03,NNW,332,0.0,13.0,48,0.00,,,0.00,Wunderground v.1.15,2013-03-06 16:41:00,
2013-03-06 11:46:00,62.6,42.1,30.02,NNW,329,3.0,13.0,47,0.00,,,0.00,Wunderground v.1.15,2013-03-06 16:46:00,
2013-03-06 11:51:00,62.6,42.1,30.02,North,354,10.0,14.0,47,0.00,,,0.00,Wunderground v.1.15,2013-03-06 16:51:00,
2013-03-06 11:56:00,62.6,42.1,30.02,NNW,344,8.0,14.0,47,0.00,,,0.00,Wunderground v.1.15,2013-03-06 16:56:00,
2013-03-06 12:01:00,62.6,42.1,30.01,WNW,298,1.0,14.0,47,0.00,,,0.00,Wunderground v.1.15,2013-03-06 17:01:00,
2013-03-06 12:06:00,62.7,42.2,30.01,NNW,330,6.0,14.0,47,0.00,,,0.00,Wunderground v.1.15,2013-03-06 17:06:00,
2013-03-06 12:11:00,62.7,42.2,30.01,NNE,27,8.0,11.0,47,0.00,,,0.00,Wunderground v.1.15,2013-03-06 17:11:00,
2013-03-06 12:16:00,63.1,42.5,30.00,WNW,295,0.0,11.0,47,0.00,,,0.00,Wunderground v.1.15,2013-03-06 17:16:00,
2013-03-06 12:21:00,63.2,42.6,30.00,West,278,0.0,12.0,47,0.00,,,0.00,Wunderground v.1.15,2013-03-06 17:21:00,
2013-03-06 12:26:00,63.2,42.6,30.00,North,356,0.0,16.0,47,0.00,,,0.00,Wunderground v.1.15,2013-03-06 17:26:00,
2013-03-06 12:31:00,63.2,42.6,30.00,West,270,0.0,10.0,47,0.00,,,0.00,Wunderground v.1.15,2013-03-06 17:31:00,
2013-03-06 12:36:00,63.4,42.8,30.00,NW,304,0.0,11.0,47,0.00,,,0.00,Wunderground v.1.15,2013-03-06 17:36:00,
2013-03-06 12:41:00,63.4,42.2,30.00,North,352,0.0,5.0,46,0.00,,,0.00,Wunderground v.1.15,2013-03-06 17:41:00,
2013-03-06 12:46:00,63.2,42.1,30.00,West,271,8.0,12.0,46,0.00,,,0.00,Wunderground v.1.15,2013-03-06 17:46:00,
2013-03-06 12:51:00,63.1,41.4,30.00,NNW,329,0.0,2.0,45,0.00,,,0.00,Wunderground v.1.15,2013-03-06 17:51:00,
2013-03-06 12:56:00,63.1,41.4,30.00,NNE,13,8.0,16.0,45,0.00,,,0.00,Wunderground v.1.15,2013-03-06 17:56:00,
2013-03-06 13:01:00,62.9,41.2,29.99,North,0,0.0,12.0,45,0.00,,,0.00,Wunderground v.1.15,2013-03-06 18:01:00,
2013-03-06 13:06:00,62.9,41.2,29.99,NNW,337,1.0,15.0,45,0.00,,,0.00,Wunderground v.1.15,2013-03-06 18:06:00,
2013-03-06 13:11:00,62.9,41.2,29.99,North,0,0.0,6.0,45,0.00,,,0.00,Wunderground v.1.15,2013-03-06 18:11:00,
2013-03-06 13:16:00,62.9,41.2,29.98,WSW,257,3.0,13.0,45,0.00,,,0.00,Wunderground v.1.15,2013-03-06 18:16:00,
2013-03-06 13:21:00,62.7,41.0,29.98,West,271,0.0,5.0,45,0.00,,,0.00,Wunderground v.1.15,2013-03-06 18:21:00,
2013-03-06 13:26:00,62.7,41.6,29.98,North,0,0.0,14.0,46,0.00,,,0.00,Wunderground v.1.15,2013-03-06 18:26:00,
2013-03-06 13:31:00,63.1,42.0,29.98,NW,316,1.0,8.0,46,0.00,,,0.00,Wunderground v.1.15,2013-03-06 18:31:00,
2013-03-06 13:36:00,62.7,41.0,29.98,NW,313,1.0,14.0,45,0.00,,,0.00,Wunderground v.1.15,2013-03-06 18:36:00,
2013-03-06 13:41:00,62.6,40.9,29.98,NNW,330,8.0,12.0,45,0.00,,,0.00,Wunderground v.1.15,2013-03-06 18:41:00,
2013-03-06 13:46:00,62.3,40.7,29.98,North,354,3.0,12.0,45,0.00,,,0.00,Wunderground v.1.15,2013-03-06 18:46:00,
2013-03-06 13:51:00,62.1,41.1,29.98,NNE,14,0.0,2.0,46,0.00,,,0.00,Wunderground v.1.15,2013-03-06 18:51:00,
2013-03-06 13:56:00,62.4,40.8,29.98,WSW,258,1.0,12.0,45,0.00,,,0.00,Wunderground v.1.15,2013-03-06 18:56:00,
2013-03-06 14:01:00,62.4,40.8,29.98,West,264,0.0,10.0,45,0.00,,,0.00,Wunderground v.1.15,2013-03-06 19:01:00,
2013-03-06 14:06:00,62.1,41.1,29.98,WNW,289,6.0,12.0,46,0.00,,,0.00,Wunderground v.1.15,2013-03-06 19:06:00,
2013-03-06 14:11:00,62.0,41.0,29.98,NNW,329,0.0,10.0,46,0.00,,,0.00,Wunderground v.1.15,2013-03-06 19:11:00,
2013-03-06 14:16:00,62.0,41.0,29.98,West,274,5.0,10.0,46,0.00,,,0.00,Wunderground v.1.15,2013-03-06 19:16:00,
2013-03-06 14:21:00,61.8,40.8,29.98,WNW,302,3.0,7.0,46,0.00,,,0.00,Wunderground v.1.15,2013-03-06 19:21:00,
2013-03-06 14:26:00,61.6,40.6,29.98,NW,323,0.0,12.0,46,0.00,,,0.00,Wunderground v.1.15,2013-03-06 19:26:00,
2013-03-06 14:31:00,61.5,40.5,29.97,WSW,258,2.0,14.0,46,0.00,,,0.00,Wunderground v.1.15,2013-03-06 19:31:00,
2013-03-06 14:36:00,61.3,40.3,29.97,NW,308,0.0,14.0,46,0.00,,,0.00,Wunderground v.1.15,2013-03-06 19:36:00,
2013-03-06 14:41:00,61.6,40.0,29.97,West,278,10.0,10.0,45,0.00,,,0.00,Wunderground v.1.15,2013-03-06 19:41:00,
2013-03-06 14:46:00,61.5,40.5,29.96,NNW,330,5.0,17.0,46,0.00,,,0.00,Wunderground v.1.15,2013-03-06 19:46:00,
2013-03-06 14:51:00,61.3,40.3,29.96,North,353,11.0,11.0,46,0.00,,,0.00,Wunderground v.1.15,2013-03-06 19:51:00,
2013-03-06 14:56:00,61.3,40.3,29.96,NNW,342,12.0,12.0,46,0.00,,,0.00,Wunderground v.1.15,2013-03-06 19:56:00,
2013-03-06 15:01:00,61.2,39.7,29.96,NNW,328,4.0,13.0,45,0.00,,,0.00,Wunderground v.1.15,2013-03-06 20:01:00,
2013-03-06 15:06:00,60.9,39.4,29.96,North,357,1.0,13.0,45,0.00,,,0.00,Wunderground v.1.15,2013-03-06 20:06:00,
2013-03-06 15:11:00,60.9,40.0,29.96,NNW,328,0.0,11.0,46,0.00,,,0.00,Wunderground v.1.15,2013-03-06 20:11:00,
2013-03-06 15:16:00,60.7,39.8,29.96,SW,226,2.0,11.0,46,0.00,,,0.00,Wunderground v.1.15,2013-03-06 20:16:00,
2013-03-06 15:21:00,60.7,39.2,29.96,North,1,0.0,13.0,45,0.00,,,0.00,Wunderground v.1.15,2013-03-06 20:21:00,
2013-03-06 15:27:00,60.5,39.6,29.96,NW,305,0.0,13.0,46,0.00,,,0.00,Wunderground v.1.15,2013-03-06 20:27:00,
2013-03-06 15:32:00,60.5,39.6,29.96,NW,304,12.0,12.0,46,0.00,,,0.00,Wunderground v.1.15,2013-03-06 20:32:00,
2013-03-06 15:37:00,60.2,39.3,29.96,WSW,256,0.0,12.0,46,0.00,,,0.00,Wunderground v.1.15,2013-03-06 20:37:00,
2013-03-06 15:42:00,60.2,39.3,29.96,WNW,295,0.0,10.0,46,0.00,,,0.00,Wunderground v.1.15,2013-03-06 20:42:00,
2013-03-06 15:47:00,60.1,38.7,29.96,West,268,5.0,17.0,45,0.00,,,0.00,Wunderground v.1.15,2013-03-06 20:47:00,
2013-03-06 15:52:00,60.1,39.8,29.96,WNW,284,0.0,3.0,47,0.00,,,0.00,Wunderground v.1.15,2013-03-06 20:52:00,
2013-03-06 15:57:00,60.2,39.9,29.96,NW,315,0.0,10.0,47,0.00,,,0.00,Wunderground v.1.15,2013-03-06 20:57:00,
2013-03-06 16:02:00,60.4,39.5,29.96,WNW,298,3.0,11.0,46,0.00,,,0.00,Wunderground v.1.15,2013-03-06 21:02:00,
2013-03-06 16:07:00,60.1,39.2,29.96,NNE,18,0.0,11.0,46,0.00,,,0.00,Wunderground v.1.15,2013-03-06 21:07:00,
2013-03-06 16:12:00,59.9,39.6,29.96,West,274,4.0,5.0,47,0.00,,,0.00,Wunderground v.1.15,2013-03-06 21:12:00,
2013-03-06 16:17:00,59.8,39.5,29.96,NW,318,0.0,11.0,47,0.00,,,0.00,Wunderground v.1.15,2013-03-06 21:17:00,
2013-03-06 16:22:00,59.5,39.2,29.96,WNW,292,0.0,13.0,47,0.00,,,0.00,Wunderground v.1.15,2013-03-06 21:22:00,
2013-03-06 16:27:00,59.3,39.1,29.96,SW,220,0.0,13.0,47,0.00,,,0.00,Wunderground v.1.15,2013-03-06 21:27:00,
2013-03-06 16:32:00,59.2,39.0,29.97,WNW,299,2.0,12.0,47,0.00,,,0.00,Wunderground v.1.15,2013-03-06 21:32:00,
2013-03-06 16:37:00,59.0,38.8,29.97,WNW,285,0.0,12.0,47,0.00,,,0.00,Wunderground v.1.15,2013-03-06 21:37:00,
2013-03-06 16:42:00,58.9,38.7,29.97,NNW,335,3.0,8.0,47,0.00,,,0.00,Wunderground v.1.15,2013-03-06 21:42:00,
2013-03-06 16:47:00,58.9,38.7,29.96,South,188,0.0,12.0,47,0.00,,,0.00,Wunderground v.1.15,2013-03-06 21:47:00,
2013-03-06 16:52:00,58.7,38.5,29.96,NW,306,0.0,8.0,47,0.00,,,0.00,Wunderground v.1.15,2013-03-06 21:52:00,
2013-03-06 16:57:00,58.6,38.4,29.96,WSW,237,0.0,13.0,47,0.00,,,0.00,Wunderground v.1.15,2013-03-06 21:57:00,
2013-03-06 17:02:00,58.4,38.8,29.95,West,260,0.0,6.0,48,0.00,,,0.00,Wunderground v.1.15,2013-03-06 22:02:00,
2013-03-06 17:07:00,58.3,38.7,29.95,WNW,285,4.0,13.0,48,0.00,,,0.00,Wunderground v.1.15,2013-03-06 22:07:00,
2013-03-06 17:12:00,58.1,38.5,29.95,NNW,337,0.0,4.0,48,0.00,,,0.00,Wunderground v.1.15,2013-03-06 22:12:00,
2013-03-06 17:17:00,57.8,38.2,29.96,WNW,288,0.0,8.0,48,0.00,,,0.00,Wunderground v.1.15,2013-03-06 22:17:00,
2013-03-06 17:22:00,57.6,38.6,29.96,WNW,287,0.0,7.0,49,0.00,,,0.00,Wunderground v.1.15,2013-03-06 22:22:00,
2013-03-06 17:27:00,57.5,38.5,29.96,West,260,0.0,13.0,49,0.00,,,0.00,Wunderground v.1.15,2013-03-06 22:27:00,
2013-03-06 17:32:00,57.3,38.8,29.96,North,0,0.0,8.0,50,0.00,,,0.00,Wunderground v.1.15,2013-03-06 22:32:00,
2013-03-06 17:37:00,57.0,38.5,29.96,North,359,0.0,10.0,50,0.00,,,0.00,Wunderground v.1.15,2013-03-06 22:37:00,
2013-03-06 17:42:00,56.9,38.4,29.96,WNW,282,7.0,10.0,50,0.00,,,0.00,Wunderground v.1.15,2013-03-06 22:42:00,
2013-03-06 17:47:00,56.7,38.8,29.96,NNE,28,0.0,10.0,51,0.00,,,0.00,Wunderground v.1.15,2013-03-06 22:47:00,
2013-03-06 17:52:00,56.5,38.6,29.96,West,270,0.0,8.0,51,0.00,,,0.00,Wunderground v.1.15,2013-03-06 22:52:00,
2013-03-06 17:57:00,56.5,38.6,29.96,North,0,1.0,8.0,51,0.00,,,0.00,Wunderground v.1.15,2013-03-06 22:57:00,
2013-03-06 18:02:00,56.2,38.3,29.96,West,263,0.0,3.0,51,0.00,,,0.00,Wunderground v.1.15,2013-03-06 23:02:00,
2013-03-06 18:07:00,56.0,38.1,29.96,West,271,0.0,11.0,51,0.00,,,0.00,Wunderground v.1.15,2013-03-06 23:07:00,
2013-03-06 18:12:00,55.7,37.8,29.96,North,354,0.0,12.0,51,0.00,,,0.00,Wunderground v.1.15,2013-03-06 23:12:00,
2013-03-06 18:17:00,55.6,37.7,29.97,North,357,0.0,12.0,51,0.00,,,0.00,Wunderground v.1.15,2013-03-06 23:17:00,
2013-03-06 18:22:00,55.4,38.1,29.97,WNW,301,0.0,6.0,52,0.00,,,0.00,Wunderground v.1.15,2013-03-06 23:22:00,
2013-03-06 18:27:00,55.3,38.0,29.97,North,0,0.0,6.0,52,0.00,,,0.00,Wunderground v.1.15,2013-03-06 23:27:00,
2013-03-06 18:32:00,55.1,38.3,29.98,North,0,0.0,0.0,53,0.00,,,0.00,Wunderground v.1.15,2013-03-06 23:32:00,
2013-03-06 18:37:00,55.1,38.7,29.98,WNW,289,0.0,7.0,54,0.00,,,0.00,Wunderground v.1.15,2013-03-06 23:37:00,
2013-03-06 18:42:00,55.0,38.6,29.98,NW,320,0.0,1.0,54,0.00,,,0.00,Wunderground v.1.15,2013-03-06 23:42:00,
2013-03-06 18:47:00,55.0,38.6,29.97,NNW,330,4.0,16.0,54,0.00,,,0.00,Wunderground v.1.15,2013-03-06 23:47:00,
2013-03-06 18:52:00,54.8,38.5,29.97,North,1,0.0,3.0,54,0.00,,,0.00,Wunderground v.1.15,2013-03-06 23:52:00,
2013-03-06 18:57:00,54.7,38.4,29.97,NNW,339,0.0,7.0,54,0.00,,,0.00,Wunderground v.1.15,2013-03-06 23:57:00,
2013-03-06 19:02:00,54.7,38.4,29.98,WNW,294,0.0,12.0,54,0.00,,,0.00,Wunderground v.1.15,2013-03-07 00:02:00,
2013-03-06 19:07:00,54.5,38.2,29.98,North,359,0.0,13.0,54,0.00,,,0.00,Wunderground v.1.15,2013-03-07 00:07:00,
2013-03-06 19:12:00,54.5,38.2,29.98,NNW,329,0.0,5.0,54,0.00,,,0.00,Wunderground v.1.15,2013-03-07 00:12:00,
2013-03-06 19:17:00,54.7,38.8,29.98,WNW,301,0.0,8.0,55,0.00,,,0.00,Wunderground v.1.15,2013-03-07 00:17:00,
2013-03-06 19:22:00,54.7,39.3,29.98,North,0,1.0,3.0,56,0.00,,,0.00,Wunderground v.1.15,2013-03-07 00:22:00,
2013-03-06 19:27:00,54.7,39.3,29.98,East,82,0.0,8.0,56,0.00,,,0.00,Wunderground v.1.15,2013-03-07 00:27:00,
2013-03-06 19:32:00,54.5,38.7,29.99,NNW,347,0.0,5.0,55,0.00,,,0.00,Wunderground v.1.15,2013-03-07 00:32:00,
2013-03-06 19:37:00,54.5,39.1,29.99,NW,304,0.0,5.0,56,0.00,,,0.00,Wunderground v.1.15,2013-03-07 00:37:00,
2013-03-06 19:42:00,54.5,39.1,29.99,NNE,23,0.0,6.0,56,0.00,,,0.00,Wunderground v.1.15,2013-03-07 00:42:00,
2013-03-06 19:47:00,54.5,39.1,29.99,NW,322,8.0,8.0,56,0.00,,,0.00,Wunderground v.1.15,2013-03-07 00:47:00,
2013-03-06 19:52:00,54.4,39.0,29.99,WNW,291,0.0,2.0,56,0.00,,,0.00,Wunderground v.1.15,2013-03-07 00:52:00,
2013-03-06 19:57:00,54.4,39.0,29.99,WNW,301,0.0,14.0,56,0.00,,,0.00,Wunderground v.1.15,2013-03-07 00:57:00,
2013-03-06 20:02:00,54.4,39.5,29.99,NNW,343,0.0,5.0,57,0.00,,,0.00,Wunderground v.1.15,2013-03-07 01:02:00,
2013-03-06 20:07:00,54.5,39.6,29.99,WNW,285,0.0,6.0,57,0.00,,,0.00,Wunderground v.1.15,2013-03-07 01:07:00,
2013-03-06 20:12:00,54.5,39.6,29.99,NW,305,0.0,5.0,57,0.00,,,0.00,Wunderground v.1.15,2013-03-07 01:12:00,
2013-03-06 20:17:00,54.4,39.5,29.99,NNW,339,0.0,5.0,57,0.00,,,0.00,Wunderground v.1.15,2013-03-07 01:17:00,
2013-03-06 20:22:00,54.5,39.6,29.99,NNE,16,0.0,2.0,57,0.00,,,0.00,Wunderground v.1.15,2013-03-07 01:22:00,
2013-03-06 20:27:00,54.5,39.6,29.99,NNW,329,0.0,6.0,57,0.00,,,0.00,Wunderground v.1.15,2013-03-07 01:27:00,
2013-03-06 20:33:00,54.5,39.6,30.00,WNW,301,0.0,3.0,57,0.00,,,0.00,Wunderground v.1.15,2013-03-07 01:33:00,
2013-03-06 20:37:00,54.5,39.6,30.00,NNW,337,0.0,4.0,57,0.00,,,0.00,Wunderground v.1.15,2013-03-07 01:37:00,
2013-03-06 20:42:00,54.5,39.6,30.00,NNW,333,0.0,7.0,57,0.00,,,0.00,Wunderground v.1.15,2013-03-07 01:42:00,
2013-03-06 20:47:00,54.7,40.2,30.00,NW,313,3.0,7.0,58,0.00,,,0.00,Wunderground v.1.15,2013-03-07 01:47:00,
2013-03-06 20:52:00,54.7,40.2,30.00,NNW,346,0.0,6.0,58,0.00,,,0.00,Wunderground v.1.15,2013-03-07 01:52:00,
2013-03-06 20:57:00,54.7,40.2,30.00,North,10,2.0,6.0,58,0.00,,,0.00,Wunderground v.1.15,2013-03-07 01:57:00,
2013-03-06 21:02:00,54.7,40.2,30.00,NW,318,0.0,6.0,58,0.00,,,0.00,Wunderground v.1.15,2013-03-07 02:02:00,
2013-03-06 21:07:00,54.8,40.3,30.00,North,0,1.0,11.0,58,0.00,,,0.00,Wunderground v.1.15,2013-03-07 02:07:00,
2013-03-06 21:12:00,54.8,40.3,30.00,NW,305,0.0,1.0,58,0.00,,,0.00,Wunderground v.1.15,2013-03-07 02:12:00,
2013-03-06 21:17:00,54.8,40.3,30.00,East,83,0.0,8.0,58,0.00,,,0.00,Wunderground v.1.15,2013-03-07 02:17:00,
2013-03-06 21:22:00,54.8,40.3,30.00,NNW,332,0.0,7.0,58,0.00,,,0.00,Wunderground v.1.15,2013-03-07 02:22:00,
2013-03-06 21:27:00,54.8,40.3,30.00,NNW,330,0.0,8.0,58,0.00,,,0.00,Wunderground v.1.15,2013-03-07 02:27:00,
2013-03-06 21:32:00,54.8,39.8,30.01,North,354,3.0,5.0,57,0.00,,,0.00,Wunderground v.1.15,2013-03-07 02:32:00,
2013-03-06 21:37:00,54.8,39.8,30.01,ENE,61,0.0,8.0,57,0.00,,,0.00,Wunderground v.1.15,2013-03-07 02:37:00,
2013-03-06 21:42:00,55.0,39.6,30.01,NNW,346,0.0,7.0,56,0.00,,,0.00,Wunderground v.1.15,2013-03-07 02:42:00,
2013-03-06 21:47:00,55.0,39.1,30.01,NW,304,1.0,12.0,55,0.00,,,0.00,Wunderground v.1.15,2013-03-07 02:47:00,
2013-03-06 21:52:00,55.1,39.2,30.01,NNW,333,4.0,12.0,55,0.00,,,0.00,Wunderground v.1.15,2013-03-07 02:52:00,
2013-03-06 21:57:00,55.1,39.2,30.01,NNE,20,4.0,12.0,55,0.00,,,0.00,Wunderground v.1.15,2013-03-07 02:57:00,
2013-03-06 22:02:00,55.1,39.2,30.02,NNE,17,2.0,3.0,55,0.00,,,0.00,Wunderground v.1.15,2013-03-07 03:02:00,
2013-03-06 22:07:00,55.1,39.2,30.02,North,1,0.0,5.0,55,0.00,,,0.00,Wunderground v.1.15,2013-03-07 03:07:00,
2013-03-06 22:12:00,55.1,39.2,30.02,North,0,0.0,10.0,55,0.00,,,0.00,Wunderground v.1.15,2013-03-07 03:12:00,
2013-03-06 22:17:00,55.1,39.2,30.03,East,79,0.0,10.0,55,0.00,,,0.00,Wunderground v.1.15,2013-03-07 03:17:00,
2013-03-06 22:23:00,55.1,39.2,30.03,NW,322,3.0,6.0,55,0.00,,,0.00,Wunderground v.1.15,2013-03-07 03:23:00,
2013-03-06 22:28:00,55.1,39.7,30.03,North,8,2.0,6.0,56,0.00,,,0.00,Wunderground v.1.15,2013-03-07 03:28:00,
2013-03-06 22:33:00,55.0,39.6,30.04,NNE,21,0.0,11.0,56,0.00,,,0.00,Wunderground v.1.15,2013-03-07 03:33:00,
2013-03-06 22:38:00,55.0,39.6,30.04,North,357,0.0,11.0,56,0.00,,,0.00,Wunderground v.1.15,2013-03-07 03:38:00,
2013-03-06 22:43:00,54.8,39.4,30.04,WNW,295,0.0,3.0,56,0.00,,,0.00,Wunderground v.1.15,2013-03-07 03:43:00,
2013-03-06 22:48:00,54.8,39.4,30.04,North,359,4.0,5.0,56,0.00,,,0.00,Wunderground v.1.15,2013-03-07 03:48:00,
2013-03-06 22:53:00,54.8,39.4,30.04,NE,51,0.0,11.0,56,0.00,,,0.00,Wunderground v.1.15,2013-03-07 03:53:00,
2013-03-06 22:58:00,54.7,39.3,30.04,NNW,339,0.0,11.0,56,0.00,,,0.00,Wunderground v.1.15,2013-03-07 03:58:00,
2013-03-06 23:03:00,54.7,39.3,30.04,North,353,0.0,0.0,56,0.00,,,0.00,Wunderground v.1.15,2013-03-07 04:03:00,
2013-03-06 23:08:00,54.5,39.1,30.04,NNW,332,0.0,8.0,56,0.00,,,0.00,Wunderground v.1.15,2013-03-07 04:08:00,
2013-03-06 23:13:00,54.4,39.0,30.04,North,6,0.0,7.0,56,0.00,,,0.00,Wunderground v.1.15,2013-03-07 04:13:00,
2013-03-06 23:18:00,54.4,39.0,30.04,NNW,342,0.0,7.0,56,0.00,,,0.00,Wunderground v.1.15,2013-03-07 04:18:00,
2013-03-06 23:23:00,54.2,38.8,30.04,North,350,0.0,3.0,56,0.00,,,0.00,Wunderground v.1.15,2013-03-07 04:23:00,
2013-03-06 23:28:00,54.1,39.2,30.04,NNW,340,0.0,6.0,57,0.00,,,0.00,Wunderground v.1.15,2013-03-07 04:28:00,
2013-03-06 23:33:00,54.1,39.2,30.04,North,0,0.0,6.0,57,0.00,,,0.00,Wunderground v.1.15,2013-03-07 04:33:00,
2013-03-06 23:38:00,53.9,39.0,30.04,North,353,0.0,6.0,57,0.00,,,0.00,Wunderground v.1.15,2013-03-07 04:38:00,
2013-03-06 23:43:00,53.9,39.0,30.04,North,0,0.0,3.0,57,0.00,,,0.00,Wunderground v.1.15,2013-03-07 04:43:00,
2013-03-06 23:48:00,53.8,38.9,30.04,NW,306,0.0,3.0,57,0.00,,,0.00,Wunderground v.1.15,2013-03-07 04:48:00,
2013-03-06 23:53:00,53.6,38.7,30.04,North,6,5.0,7.0,57,0.00,,,0.00,Wunderground v.1.15,2013-03-07 04:53:00,
2013-03-06 23:58:00,53.5,38.6,30.04,NNW,347,0.0,7.0,57,0.00,,,0.00,Wunderground v.1.15,2013-03-07 04:58:00,